Dauntless Aviation
Greetings, Guest! To participate, [sign up for a free account] or [log in]
Airports Europe Croatia
LDDU
DBV

Dubrovnik

Dubrovnik, CROATIA

Airport Info
Edit

Location

Latitude / Longitude: 42°33'41"N / 18°16'5"E
  42°33.684'N / 18°16.092'E
  42.5614 / 18.2682

Nearby radio navigation aids

CV DUBROVNIK NDB. 117.6° 2.8nm from CV to field.
DBK DUBROVNIK VOR/DME on field.
GR DUBROVNIK NDB. 294.2° 2.9nm from GR to field.
KLP KOLOCEP NDB. 118.0° 12.7nm from KLP to field.

Runway Information

Runway 12 /30

Dimensions: 10827 x 148 ft.
Surface: ASP
 
Runway 12
Runway 30
Latitude: 42.569225 42.555819
Longitude: 18.2484 18.282192
Elevation: 519 ft. 519 ft.
Runway true heading: 117.6 297.6
 

Instrument Procedures

  Aerodrome Chart
  Aircraft Parking/Docking Chart

STARs (Standard Terminal Arrivals)

  STAR - Instrument (STAR) - Rwy 12/30

IAPs (Instrument Approach Procedures)

  Visual Manoeuvering - Circling Chart (IFR) - Circling Rwy 30
  Aerodrome Obstacle Chart - Type A - Rwy 30
  Aerodrome Obstacle Chart - Type A - Rwy 12
  VOR Rwy 12
  Bird Concentrations
  Visual Operation Chart
  VOR-A Rwy 30
  L Rwy 12
  ILS or LOC Rwy 12
  ATC Surveillance Minimum Altitude Chart

Departure Procedures

  SID - Instrument (SID) - Rwy 30
  SID - Instrument (SID) - Rwy 12
Satellite photo at:
Airport distance calculator
From:
Weather Reports

METAR

LDDU

LDDU 301230Z VRB03KT 9999 SCT045 16/10 Q1019 NOSIG
LYTV
22.6nm E
LYTV 301230Z 16005KT 110V250 9999 -TSRA SCT027CB BKN033 13/11 Q1020 NOSIG

TAF

LDDU
TAF LDDU 301125Z 3012/3112 24006KT 9999 FEW035 SCT050 TX17/3111Z TN10/3104Z PROB40 TEMPO 3012/3015 SHRA FEW025TCU SCT035 BECMG 3017/3019 03015G25KT TEMPO 3020/3106 03020G35KT BECMG 3108/3110 26008KT
LYTV
22.6nm E
TAF AMD LYTV 301225Z 3012/3112 25006KT 9999 SCT030 BKN083 TX17/3012Z TN07/3105Z TEMPO 3012/3018 5000 TSRA SCT027CB BKN033 BECMG 3018/3020 02012G24KT
Safelog

 

Dauntless Aviation

© 2007-2014 Dauntless Aviation, all rights reserved
Information provided via PilotNav comes from a variety of official and unofficial data sources. As errors are possible, do not use PilotNav for primary flight planning purposes. Verify any information that you receive via PilotNav with current and canonical charts and other official documents. The material in this database is subject to database copyrights held by Dauntless Aviation and may not be copied without the express permission of Dauntless Aviation - licenses for use of part of all of this data are available for purchase; enquire via the Dauntless Aviation helpdesk. A number of mechanisms and markers exist in the database to protect against and identify infringement / copyright. Automated queries against this website are stictly prohibited, and all activity is logged and analyzed.